| time (UTC) | temp C | wind direction | speed KPH | gust KPH | rain 1hr cm | rain 24hr cm | rain mn cm | humidity % | barometer mb |
| 20260505003604 | 26 | 172 | 1.6 | 8.0 | 0.00 | 0.00 | 0.00 | 72 | 1016.6 |
| 20260505002706 | 26 | 80 | 1.6 | 6.4 | 0.00 | 0.00 | 0.00 | 74 | 1016.8 |
| 20260505001804 | 25 | 54 | 1.6 | 6.4 | 0.00 | 0.00 | 0.00 | 74 | 1016.9 |
| 20260505000912 | 25 | 271 | 1.6 | 8.0 | 0.00 | 0.00 | 0.00 | 77 | 1017.0 |
| 20260505000006 | 24 | 165 | 1.6 | 6.4 | 0.00 | 0.00 | 0.00 | 80 | 1017.0 |
| 20260504235404 | 24 | 202 | 0.0 | 3.2 | 0.00 | 0.00 | 0.00 | 80 | 1017.0 |
| 20260504234510 | 23 | 167 | 1.6 | 6.4 | 0.00 | 0.00 | 0.00 | 82 | 1017.1 |
| 20260504233819 | 23 | 181 | 3.2 | 8.0 | 0.00 | 0.00 | 0.00 | 83 | 1017.3 |
| 20260504232704 | 23 | 187 | 0.0 | 6.4 | 0.00 | 0.00 | 0.00 | 84 | 1017.1 |
| 20260504231818 | 23 | 207 | 1.6 | 8.0 | 0.00 | 0.03 | 0.00 | 83 | 1017.3 |
| 20260504230904 | 23 | 181 | 0.0 | 6.4 | 0.00 | 0.03 | 0.00 | 85 | 1017.3 |
| 20260504230011 | 23 | 161 | 1.6 | 6.4 | 0.00 | 0.03 | 0.00 | 88 | 1017.2 |
| 20260504225404 | 22 | 149 | 1.6 | 6.4 | 0.00 | 0.03 | 0.00 | 92 | 1017.3 |
| 20260504224505 | 21 | 204 | 1.6 | 8.0 | 0.00 | 0.03 | 0.00 | 97 | 1017.2 |
| 20260504223608 | 20 | 207 | 1.6 | 9.7 | 0.00 | 0.03 | 0.00 | 98 | 1017.3 |
| 20260504222708 | 20 | 207 | 1.6 | 8.0 | 0.00 | 0.03 | 0.00 | 98 | 1017.3 |
| 20260504222024 | 20 | 206 | 1.6 | 6.4 | 0.00 | 0.03 | 0.00 | 98 | 1017.2 |
| 20260504220903 | 20 | 214 | 0.0 | 3.2 | 0.00 | 0.03 | 0.00 | 98 | 1017.2 |
| 20260504220005 | 19 | 233 | 0.0 | 1.6 | 0.00 | 0.03 | 0.00 | 98 | 1017.2 |
| 20260504215619 | 19 | 246 | 0.0 | 1.6 | 0.00 | 0.03 | 0.00 | 98 | 1017.2 |
| 20260504214733 | 18 | 257 | 1.6 | 3.2 | 0.00 | 0.03 | 0.00 | 98 | 1017.1 |
| 20260504213608 | 18 | 262 | 0.0 | 1.6 | 0.00 | 0.03 | 0.00 | 98 | 1017.2 |
| 20260504212711 | 17 | 0 | 0.0 | 0.0 | 0.00 | 0.03 | 0.00 | 98 | 1017.1 |
| 20260504211804 | 17 | 0 | 0.0 | 0.0 | 0.00 | 0.05 | 0.00 | 98 | 1017.1 |
| 20260504210904 | 16 | 0 | 0.0 | 0.0 | 0.00 | 0.10 | 0.00 | 98 | 1017.0 |
| 20260504210006 | 16 | 0 | 0.0 | 0.0 | 0.00 | 0.15 | 0.00 | 97 | 1016.9 |
| 20260504204514 | 16 | 0 | 0.0 | 0.0 | 0.00 | 0.15 | 0.00 | 97 | 1016.6 |
| 20260504203817 | 16 | 0 | 0.0 | 0.0 | 0.00 | 0.15 | 0.00 | 97 | 1016.6 |
| 20260504202920 | 16 | 265 | 0.0 | 3.2 | 0.00 | 0.15 | 0.00 | 97 | 1016.6 |
| 20260504201812 | 16 | 265 | 0.0 | 1.6 | 0.00 | 0.15 | 0.00 | 97 | 1016.6 |
| 20260504200909 | 16 | 0 | 0.0 | 0.0 | 0.00 | 0.15 | 0.00 | 97 | 1016.5 |
| 20260504200005 | 16 | 0 | 0.0 | 0.0 | 0.00 | 0.15 | 0.00 | 97 | 1016.3 |
| 20260504195409 | 16 | 0 | 0.0 | 0.0 | 0.00 | 0.15 | 0.00 | 97 | 1016.3 |
| 20260504194505 | 16 | 0 | 0.0 | 0.0 | 0.00 | 0.15 | 0.00 | 97 | 1016.1 |
| 20260504193823 | 16 | 0 | 0.0 | 0.0 | 0.00 | 0.15 | 0.00 | 97 | 1016.1 |
| 20260504192704 | 16 | 0 | 0.0 | 0.0 | 0.00 | 0.15 | 0.00 | 97 | 1016.0 |
| 20260504191806 | 16 | 0 | 0.0 | 0.0 | 0.00 | 0.15 | 0.00 | 97 | 1015.9 |
| 20260504191117 | 16 | 0 | 0.0 | 0.0 | 0.00 | 0.15 | 0.00 | 97 | 1015.9 |
| 20260504190006 | 16 | 264 | 0.0 | 1.6 | 0.00 | 0.15 | 0.00 | 97 | 1015.9 |
| 20260504185404 | 16 | 0 | 0.0 | 0.0 | 0.00 | 0.15 | 0.00 | 97 | 1015.8 |
| 20260504184511 | 16 | 264 | 0.0 | 1.6 | 0.00 | 0.15 | 0.00 | 97 | 1015.9 |
| 20260504183609 | 16 | 264 | 0.0 | 1.6 | 0.00 | 0.15 | 0.00 | 97 | 1015.8 |
| 20260504182704 | 16 | 0 | 0.0 | 0.0 | 0.00 | 0.15 | 0.00 | 97 | 1015.8 |
| 20260504181803 | 16 | 0 | 0.0 | 0.0 | 0.00 | 0.15 | 0.00 | 97 | 1015.6 |
| 20260504180909 | 16 | 0 | 0.0 | 0.0 | 0.00 | 0.15 | 0.00 | 97 | 1015.5 |
| 20260504180005 | 17 | 0 | 0.0 | 0.0 | 0.00 | 0.15 | 0.00 | 97 | 1015.5 |
| 20260504175404 | 16 | 0 | 0.0 | 0.0 | 0.00 | 0.15 | 0.00 | 97 | 1015.5 |
| 20260504174505 | 17 | 0 | 0.0 | 0.0 | 0.00 | 0.15 | 0.00 | 97 | 1015.5 |
| 20260504173603 | 17 | 0 | 0.0 | 0.0 | 0.00 | 0.15 | 0.00 | 96 | 1015.6 |
| 20260504172704 | 17 | 0 | 0.0 | 0.0 | 0.00 | 0.15 | 0.00 | 97 | 1015.7 |
| 20260504171818 | 17 | 0 | 0.0 | 0.0 | 0.00 | 0.15 | 0.00 | 97 | 1015.7 |
| 20260504170903 | 17 | 0 | 0.0 | 0.0 | 0.00 | 0.15 | 0.00 | 97 | 1015.6 |
| 20260504151118 | 17 | 0 | 0.0 | 0.0 | 0.00 | 0.15 | 0.00 | 96 | 1016.2 |
| 20260504140904 | 17 | 0 | 0.0 | 0.0 | 0.00 | 0.15 | 0.00 | 96 | 1016.7 |
| 20260504140220 | 18 | 0 | 0.0 | 0.0 | 0.00 | 0.15 | 0.00 | 96 | 1016.7 |
| 20260504081804 | 21 | 0 | 0.0 | 0.0 | 0.00 | 0.15 | 0.15 | 87 | 1016.7 |
| 20260504080904 | 21 | 85 | 0.0 | 3.2 | 0.00 | 0.15 | 0.15 | 86 | 1016.6 |
| 20260504080218 | 22 | 0 | 0.0 | 0.0 | 0.00 | 0.15 | 0.15 | 86 | 1016.4 |
| 20260504050010 | 26 | 98 | 1.6 | 8.0 | 0.00 | 0.15 | 0.15 | 69 | 1015.5 |
| 20260504045409 | 26 | 97 | 1.6 | 11.3 | 0.00 | 0.15 | 0.15 | 70 | 1015.4 |
| 20260504044505 | 26 | 99 | 4.8 | 14.5 | 0.00 | 0.15 | 0.15 | 69 | 1015.4 |
| 20260504043817 | 26 | 92 | 4.8 | 11.3 | 0.00 | 0.15 | 0.15 | 68 | 1015.3 |
| 20260504042703 | 27 | 78 | 3.2 | 6.4 | 0.00 | 0.15 | 0.15 | 67 | 1015.4 |
| 20260504041809 | 26 | 100 | 1.6 | 8.0 | 0.00 | 0.15 | 0.15 | 67 | 1015.4 |
| 20260504040917 | 26 | 98 | 1.6 | 8.0 | 0.00 | 0.15 | 0.15 | 70 | 1015.4 |
| 20260504040005 | 26 | 52 | 3.2 | 8.0 | 0.00 | 0.15 | 0.15 | 70 | 1015.5 |
| 20260504035404 | 25 | 47 | 4.8 | 9.7 | 0.00 | 0.15 | 0.15 | 71 | 1015.6 |
| 20260504034505 | 25 | 68 | 3.2 | 8.0 | 0.00 | 0.15 | 0.15 | 73 | 1015.5 |
| 20260504033817 | 25 | 79 | 3.2 | 8.0 | 0.00 | 0.15 | 0.15 | 73 | 1015.6 |
| 20260504032704 | 26 | 87 | 1.6 | 6.4 | 0.00 | 0.15 | 0.15 | 71 | 1015.6 |
| 20260504031804 | 25 | 73 | 1.6 | 6.4 | 0.00 | 0.15 | 0.15 | 72 | 1015.8 |
| 20260504030906 | 25 | 64 | 3.2 | 9.7 | 0.00 | 0.15 | 0.15 | 71 | 1015.7 |
| 20260504030010 | 25 | 41 | 4.8 | 11.3 | 0.00 | 0.15 | 0.15 | 72 | 1015.9 |
| 20260504025404 | 25 | 33 | 3.2 | 11.3 | 0.00 | 0.15 | 0.15 | 71 | 1016.0 |
| 20260504024505 | 25 | 50 | 1.6 | 6.4 | 0.00 | 0.15 | 0.15 | 74 | 1016.3 |
| 20260504023604 | 25 | 47 | 1.6 | 8.0 | 0.00 | 0.15 | 0.15 | 73 | 1016.3 |
| 20260504022703 | 26 | 62 | 3.2 | 8.0 | 0.00 | 0.15 | 0.15 | 69 | 1016.5 |
| 20260504021803 | 26 | 95 | 1.6 | 8.0 | 0.00 | 0.15 | 0.15 | 72 | 1016.6 |
| 20260504021119 | 26 | 99 | 1.6 | 6.4 | 0.00 | 0.15 | 0.15 | 72 | 1016.7 |
| 20260504020005 | 25 | 63 | 3.2 | 9.7 | 0.00 | 0.15 | 0.15 | 76 | 1016.8 |